Newport Airport, OR

6:42 AM PDT on April 25, 2018 (GMT -0700)
Newport Municipal

Weather History for KONP - March, 2012

Change the Weather History Date:

Monday, March 19, 2012

  Actual Average Record
Temperature  
Mean Temperature 38 °F -  
Max Temperature 42 °F 51 °F 64 °F (1999)
Min Temperature 33 °F 41 °F 32 °F (2006)
Degree Days  
Heating Degree Days 28    
Moisture  
Dew Point 36 °F    
Average Humidity 88    
Maximum Humidity 100    
Minimum Humidity 81    
Precipitation  
Precipitation 0.07 in - - ()
Sea Level Pressure  
Sea Level Pressure 29.90 in    
Wind  
Wind Speed 6 mph (SE)    
Max Wind Speed 12 mph    
Max Gust Speed 16 mph    
Visibility 9 miles    
Events Rain    
Averages and records for this station are not official NWS values.
T = Trace of Precipitation, MM = Missing Value Source: NWS Daily Summary

Daily Weather History Graph

Daily Weather History Graph

Search for Another Location

Airport or City:

Astronomy

Mar. 19, 2012 Rise Set
Actual Time 7:20 AM PDT 7:28 PM PDT
Civil Twilight 6:51 AM PDT 7:57 PM PDT
Nautical Twilight 6:17 AM PDT 8:31 PM PDT
Astronomical Twilight 5:42 AM PDT 9:06 PM PDT
Moon 5:40 AM PDT (3/19) 4:57 PM PDT (3/19)
Length of Visible Light 13h 06m
Length of Day
12h 08m
Waning Crescent, 8% of the Moon is Illuminated
Mar 19
Waning Crescent
Mar 22
New
Mar 30
First Quarter
Apr 6
Full
Apr 13
Last Quarter

Hourly Weather History & Observations

Time (PDT) Temp. Windchill Dew Point Humidity Pressure Visibility Wind Dir Wind Speed Gust Speed Precip Events Conditions
12:15 AM 35.6 °F 32.8 °F 32.0 °F 87% 29.92 in 10.0 mi ESE 3.5 mph - N/A   Overcast
12:35 AM 35.6 °F 30.7 °F 32.0 °F 87% 29.92 in 10.0 mi East 5.8 mph - N/A   Overcast
12:55 AM 35.6 °F 29.9 °F 32.0 °F 87% 29.91 in 10.0 mi East 6.9 mph - N/A   Overcast
1:15 AM 33.8 °F 27.7 °F 32.0 °F 93% 29.91 in 10.0 mi ESE 6.9 mph - N/A   Overcast
1:55 AM 35.6 °F - 32.0 °F 87% 29.91 in 10.0 mi Calm Calm - N/A   Overcast
2:15 AM 35.6 °F 32.8 °F 32.0 °F 87% 29.92 in 10.0 mi SSE 3.5 mph - N/A   Overcast
2:55 AM 35.6 °F 29.9 °F 32.0 °F 87% 29.91 in 10.0 mi SE 6.9 mph - N/A Rain Light Rain
3:15 AM 35.6 °F 29.9 °F 32.0 °F 87% 29.92 in 5.0 mi SSE 6.9 mph - 0.01 in Rain Light Rain
3:55 AM 35.6 °F 29.9 °F 33.8 °F 93% 29.91 in 7.0 mi SSE 6.9 mph - 0.01 in Rain Rain
4:15 AM 35.6 °F 30.7 °F 33.8 °F 93% 29.91 in 10.0 mi SSE 5.8 mph - 0.01 in Rain Rain
4:35 AM 35.6 °F 29.9 °F 33.8 °F 93% 29.90 in 10.0 mi SE 6.9 mph - 0.01 in   Overcast
4:55 AM 35.6 °F 31.7 °F 33.8 °F 93% 29.91 in 5.0 mi SSE 4.6 mph - 0.02 in Rain Rain
5:15 AM 35.6 °F 30.7 °F 33.8 °F 93% 29.90 in 7.0 mi SSE 5.8 mph - 0.02 in Rain Light Rain
5:35 AM 35.6 °F 30.7 °F 33.8 °F 93% 29.90 in 5.0 mi SSE 5.8 mph - 0.03 in Rain Light Rain
5:55 AM 35.6 °F 29.9 °F 33.8 °F 93% 29.90 in 10.0 mi SE 6.9 mph - 0.03 in Rain Light Rain
6:15 AM 35.6 °F 30.7 °F 33.8 °F 93% 29.91 in 10.0 mi SE 5.8 mph - N/A   Overcast
6:35 AM 35.6 °F 29.9 °F 33.8 °F 93% 29.91 in 10.0 mi SE 6.9 mph - N/A   Overcast
6:55 AM 35.6 °F 30.7 °F 33.8 °F 93% 29.92 in 10.0 mi SE 5.8 mph - N/A   Mostly Cloudy
7:15 AM 33.8 °F 27.7 °F 33.8 °F 100% 29.91 in 10.0 mi SE 6.9 mph - N/A   Scattered Clouds
7:35 AM 35.6 °F 29.9 °F 33.8 °F 93% 29.91 in 10.0 mi SE 6.9 mph - N/A   Clear
8:15 AM 35.6 °F 29.2 °F 33.8 °F 93% 29.91 in 10.0 mi SE 8.1 mph - N/A   Scattered Clouds
8:55 AM 37.4 °F 30.8 °F 35.6 °F 93% 29.91 in 10.0 mi SSE 9.2 mph - N/A   Mostly Cloudy
9:15 AM 37.4 °F 32.1 °F 35.6 °F 93% 29.92 in 10.0 mi SSE 6.9 mph - N/A   Overcast
9:35 AM 39.2 °F 33.6 °F 35.6 °F 87% 29.92 in 10.0 mi SSE 8.1 mph - N/A   Mostly Cloudy
9:55 AM 41.0 °F 35.8 °F 35.6 °F 81% 29.92 in 10.0 mi SSE 8.1 mph - N/A   Overcast
10:15 AM 41.0 °F 36.4 °F 35.6 °F 81% 29.93 in 10.0 mi SSE 6.9 mph - N/A   Overcast
10:35 AM 41.0 °F 34.7 °F 37.4 °F 87% 29.93 in 10.0 mi SSE 10.4 mph - N/A   Overcast
10:55 AM 42.8 °F 38.6 °F 37.4 °F 81% 29.93 in 10.0 mi SSE 6.9 mph - N/A   Overcast
11:15 AM 42.8 °F 38.6 °F 37.4 °F 81% 29.93 in 10.0 mi SE 6.9 mph - N/A   Overcast
11:55 AM 41.0 °F 36.4 °F 35.6 °F 81% 29.93 in 10.0 mi SE 6.9 mph - N/A   Overcast
12:15 PM 42.8 °F 36.6 °F 37.4 °F 81% 29.93 in 10.0 mi South 11.5 mph - N/A   Light Drizzle
12:35 PM 41.0 °F 35.2 °F 37.4 °F 87% 29.93 in 10.0 mi SSE 9.2 mph - N/A   Overcast
12:55 PM 41.0 °F 35.2 °F 37.4 °F 87% 29.93 in 10.0 mi SSE 9.2 mph 16.1 mph N/A   Overcast
1:15 PM 41.0 °F 35.8 °F 37.4 °F 87% 29.92 in 10.0 mi SSE 8.1 mph - N/A   Overcast
1:35 PM 42.8 °F 38.0 °F 37.4 °F 81% 29.92 in 10.0 mi SSE 8.1 mph - N/A   Overcast
1:55 PM 42.8 °F 38.0 °F 37.4 °F 81% 29.92 in 10.0 mi SE 8.1 mph - N/A   Overcast
2:15 PM 42.8 °F 38.0 °F 37.4 °F 81% 29.91 in 7.0 mi SE 8.1 mph - N/A   Light Drizzle
2:35 PM 42.8 °F 37.5 °F 37.4 °F 81% 29.91 in 10.0 mi SE 9.2 mph - N/A   Overcast
2:55 PM 41.0 °F 35.8 °F 37.4 °F 87% 29.90 in 7.0 mi SSE 8.1 mph - N/A   Light Drizzle
3:35 PM 42.8 °F 37.5 °F 39.2 °F 87% 29.89 in 7.0 mi SSE 9.2 mph - N/A   Light Drizzle
3:55 PM 42.8 °F 37.5 °F 39.2 °F 87% 29.89 in 10.0 mi South 9.2 mph - N/A   Overcast
4:15 PM 42.8 °F 38.6 °F 39.2 °F 87% 29.89 in 10.0 mi SSE 6.9 mph - N/A Rain Light Rain
4:35 PM 42.8 °F 37.0 °F 39.2 °F 87% 29.87 in 10.0 mi SSE 10.4 mph - N/A   Light Drizzle
4:55 PM 42.8 °F 37.5 °F 39.2 °F 87% 29.86 in 10.0 mi SSE 9.2 mph - N/A   Drizzle
5:15 PM 42.8 °F 37.5 °F 39.2 °F 87% 29.86 in 4.0 mi SSE 9.2 mph - 0.01 in   Drizzle
5:35 PM 41.0 °F 35.8 °F 39.2 °F 93% 29.85 in 7.0 mi SSE 8.1 mph - 0.01 in   Light Drizzle
5:55 PM 42.8 °F 36.6 °F 39.2 °F 87% 29.85 in 10.0 mi SSE 11.5 mph - 0.01 in   Overcast
6:15 PM 42.8 °F 38.0 °F 39.2 °F 87% 29.85 in 10.0 mi SSE 8.1 mph - N/A   Overcast
6:35 PM 42.8 °F 38.6 °F 39.2 °F 87% 29.85 in 10.0 mi SE 6.9 mph - N/A   Drizzle
6:55 PM 42.8 °F 38.0 °F 37.4 °F 81% 29.85 in 10.0 mi SE 8.1 mph - N/A Rain Light Rain
7:15 PM 42.8 °F 39.3 °F 39.2 °F 87% 29.83 in 10.0 mi SE 5.8 mph - N/A   Drizzle
7:35 PM 42.8 °F 38.0 °F 39.2 °F 87% 29.83 in 10.0 mi SSE 8.1 mph - N/A   Light Drizzle
7:55 PM 42.8 °F 39.3 °F 39.2 °F 87% 29.83 in 10.0 mi SSE 5.8 mph - N/A   Drizzle
8:15 PM 42.8 °F 39.3 °F 39.2 °F 87% 29.83 in 7.0 mi SSE 5.8 mph - N/A   Light Drizzle
8:35 PM 41.0 °F 35.2 °F 39.2 °F 93% 29.82 in 5.0 mi South 9.2 mph - N/A   Drizzle
8:55 PM 41.0 °F 35.8 °F 39.2 °F 93% 29.82 in 5.0 mi SSE 8.1 mph - 0.01 in Rain Rain
9:15 PM 41.0 °F 36.4 °F 39.2 °F 93% 29.80 in 7.0 mi SSE 6.9 mph - N/A   Drizzle
9:35 PM 41.0 °F 37.1 °F 39.2 °F 93% 29.80 in 7.0 mi South 5.8 mph - 0.01 in   Drizzle
10:55 PM 42.8 °F 35.1 °F 41.0 °F 93% 29.78 in 10.0 mi South 16.1 mph 20.7 mph N/A   Overcast